{"data":{"norad_id":65877,"epoch":"2026-05-25T03:16:30.025632Z","epoch_age_seconds":56403,"freshness":"FRESH","line1":"1 65877U 25223Z   26145.13645863  .00015014  00000+0  51794-3 0  9990","line2":"2 65877  53.1614 298.8216 0001254  90.1351 269.9793 15.30205533 35912","mean_motion":15.30205533,"eccentricity":0.0001254,"inclination_deg":53.1614,"raan_deg":298.8216,"arg_perigee_deg":90.1351,"mean_anomaly_deg":269.9793,"bstar":0.00051794,"rev_number":3591,"period_min":94.10500543524,"perigee_km":474.3391406506,"apogee_km":476.05795720627,"semimajor_km":6853.3355489284,"source":"CELESTRAK","updated_at":"2026-05-25T13:38:20.977294Z"}}